TimeCET,TemperatureF,Dew PointF,Humidity,Sea Level PressureIn,VisibilityMPH,Wind Direction,Wind SpeedMPH,Gust SpeedMPH,PrecipitationIn,Events,Conditions,WindDirDegrees,DateUTC
12:45 AM,26.6,23.0,86,29.92,-9999.0,ENE,6.9,-,N/A,,Clear,70,2012-12-07 23:45:00
1:45 AM,26.6,23.0,86,29.92,-9999.0,ENE,11.5,-,N/A,,Clear,70,2012-12-08 00:45:00
2:45 AM,28.4,23.0,80,29.92,-9999.0,ENE,11.5,-,N/A,,Clear,70,2012-12-08 01:45:00
3:45 AM,28.4,23.0,80,29.89,-9999.0,ENE,10.4,-,N/A,,Clear,60,2012-12-08 02:45:00
4:45 AM,28.4,21.2,74,29.89,-9999.0,ENE,12.7,-,N/A,,Clear,60,2012-12-08 03:45:00
5:15 AM,28.4,23.0,80,29.83,-9999.0,NE,18.4,-,N/A,,Clear,50,2012-12-08 04:15:00
5:45 AM,28.4,23.0,80,29.83,-9999.0,NE,20.7,-,N/A,,Clear,50,2012-12-08 04:45:00
6:15 AM,28.4,21.2,74,29.83,-9999.0,NE,20.7,-,N/A,,Clear,50,2012-12-08 05:15:00
6:45 AM,28.4,21.2,74,29.83,-9999.0,NE,20.7,-,N/A,,Clear,50,2012-12-08 05:45:00
7:00 AM,28,22,69,29.85,16,NE,20.1,,,,Partly Cloudy,50,2012-12-08 06:00:00
7:15 AM,26.6,21.2,80,29.83,-9999.0,NE,17.3,-,N/A,,Clear,50,2012-12-08 06:15:00
7:45 AM,28.4,21.2,74,29.83,-9999.0,NE,16.1,-,N/A,,Clear,50,2012-12-08 06:45:00
8:15 AM,28.4,21.2,74,29.83,-9999.0,NE,13.8,-,N/A,,Clear,50,2012-12-08 07:15:00
8:45 AM,28.4,21.2,74,29.86,6.2,NE,15.0,-,N/A,,Overcast,40,2012-12-08 07:45:00
8:54 AM,28.4,21.2,74,29.86,6.2,NE,16.1,-,N/A,Snow,Light Snow,40,2012-12-08 07:54:00
9:15 AM,28.4,21.2,74,29.86,6.2,NE,13.8,-,N/A,Snow,Light Snow,40,2012-12-08 08:15:00
9:45 AM,28.4,23.0,80,29.83,6.2,NE,12.7,-,N/A,Snow,Light Snow,40,2012-12-08 08:45:00
10:15 AM,28.4,23.0,80,29.83,5.6,NNE,15.0,-,N/A,Snow,Light Snow,30,2012-12-08 09:15:00
10:45 AM,28.4,23.0,80,29.83,6.2,NNE,13.8,-,N/A,Snow,Light Snow,30,2012-12-08 09:45:00
11:13 AM,28.4,23.0,80,29.83,-9999.0,NNE,18.4,-,N/A,,Unknown,30,2012-12-08 10:13:00
11:14 AM,28.4,23.0,80,29.83,4.3,NNE,18.4,-,N/A,Snow,Light Snow,30,2012-12-08 10:14:00
11:15 AM,28.4,23.0,80,29.83,4.3,NNE,18.4,-,N/A,Snow,Light Snow,30,2012-12-08 10:15:00
11:45 AM,28.4,24.8,86,29.83,1.6,NNE,18.4,-,N/A,Snow,Light Snow,30,2012-12-08 10:45:00
12:03 PM,28.4,24.8,86,29.83,0.6,NNE,19.6,-,N/A,Snow,Snow,30,2012-12-08 11:03:00
12:15 PM,26.6,24.8,93,29.80,0.5,NNE,19.6,-,N/A,Snow,Snow,30,2012-12-08 11:15:00
12:45 PM,26.6,26.6,100,29.80,0.6,NNE,18.4,-,N/A,Snow,Snow,30,2012-12-08 11:45:00
1:00 PM,27,26,93,29.83,1,NNE,17.9,,,Snow,Snow,30,2012-12-08 12:00:00
1:15 PM,26.6,26.6,100,29.80,0.6,NNE,20.7,-,N/A,Snow,Snow,20,2012-12-08 12:15:00
1:45 PM,26.6,24.8,93,29.80,0.9,NNE,20.7,-,N/A,Snow,Snow,20,2012-12-08 12:45:00
2:15 PM,26.6,24.8,93,29.80,0.7,NNE,21.9,-,N/A,Snow,Snow,20,2012-12-08 13:15:00
2:45 PM,26.6,24.8,93,29.83,0.6,NNE,23.0,-,N/A,Snow,Snow,20,2012-12-08 13:45:00
3:11 PM,26.6,24.8,93,29.83,0.4,NNE,23.0,-,N/A,Snow,Snow,20,2012-12-08 14:11:00
3:15 PM,26.6,24.8,93,29.83,0.4,NNE,23.0,-,N/A,Snow,Snow,20,2012-12-08 14:15:00
3:45 PM,26.6,24.8,93,29.83,0.6,NNE,21.9,-,N/A,Snow,Snow,20,2012-12-08 14:45:00
4:15 PM,26.6,24.8,93,29.83,0.4,NNE,21.9,-,N/A,Snow,Snow,20,2012-12-08 15:15:00
4:45 PM,26.6,26.6,100,29.83,0.6,NNE,21.9,-,N/A,Snow,Snow,20,2012-12-08 15:45:00
5:15 PM,26.6,24.8,93,29.83,0.5,NNE,21.9,-,N/A,Snow,Snow,20,2012-12-08 16:15:00
5:45 PM,26.6,24.8,93,29.83,0.6,NNE,20.7,-,N/A,Snow,Snow,20,2012-12-08 16:45:00
6:15 PM,26.6,26.6,100,29.86,0.8,North,19.6,-,N/A,Snow,Light Snow,10,2012-12-08 17:15:00
6:45 PM,26.6,26.6,100,29.86,0.9,North,19.6,-,N/A,Snow,Light Snow,10,2012-12-08 17:45:00
7:00 PM,27,26,93,29.88,1,North,20.1,,,Snow,Light Snow,10,2012-12-08 18:00:00
7:15 PM,26.6,24.8,93,29.86,0.9,North,19.6,-,N/A,Snow,Light Snow,10,2012-12-08 18:15:00
7:45 PM,26.6,24.8,93,29.89,0.9,North,19.6,-,N/A,Snow,Light Snow,10,2012-12-08 18:45:00
8:15 PM,26.6,24.8,93,29.89,0.9,North,18.4,-,N/A,Snow,Light Snow,10,2012-12-08 19:15:00
8:45 PM,26.6,24.8,93,29.89,0.9,North,19.6,-,N/A,Snow,Light Snow,10,2012-12-08 19:45:00
9:45 PM,26.6,24.8,93,29.89,0.9,North,18.4,-,N/A,Snow,Light Snow,10,2012-12-08 20:45:00
10:45 PM,26.6,24.8,93,29.89,0.9,North,20.7,-,N/A,Snow,Light Snow,360,2012-12-08 21:45:00
11:45 PM,24.8,24.8,100,29.89,0.9,North,20.7,-,N/A,Snow,Light Snow,360,2012-12-08 22:45:00